This is the latest recevied weather packets stored in our database for station/object AA7DG. If no packets are shown the sender has not sent any weather packets the latest 10 day(s).
| Time | Temp. | Humidity | Pressure | Rain* | Wind** | Luminosity | Snow |
|---|---|---|---|---|---|---|---|
| 1777779002 | 20.56° C | 42% | 1014.2 hPa | - | - | - | - |
| 1777777801 | 21.67° C | 37% | 1013.9 hPa | - | - | - | - |
| 1777775101 | 25.56° C | 25% | 1013.5 hPa | - | - | - | - |
| 1777774501 | 25.56° C | 25% | 1013.5 hPa | - | - | - | - |
| 1777773307 | 25.56° C | 23% | 1013.5 hPa | - | - | - | - |
| 1777773007 | 26.11° C | 23% | 1013.5 hPa | - | - | - | - |
| 1777771501 | 25.56° C | 22% | 1013.5 hPa | - | - | - | - |
| 1777768802 | 27.78° C | 18% | 1013.5 hPa | - | - | - | - |
| 1777767006 | 27.78° C | 20% | 1013.6 hPa | - | - | - | - |
| 1777766706 | 27.78° C | 21% | 1013.8 hPa | - | - | - | - |
| 1777763401 | 27.78° C | 20% | 1014.2 hPa | - | - | - | - |
| 1777763101 | 28.33° C | 19% | 1014.2 hPa | - | - | - | - |
| 1777761601 | 28.33° C | 20% | 1014.6 hPa | - | - | - | - |
| 1777758301 | 27.78° C | 20% | 1015.2 hPa | - | - | - | - |
| 1777757406 | 27.78° C | 21% | 1015.6 hPa | - | - | - | - |
| 1777756200 | 27.78° C | 22% | 1015.6 hPa | - | - | - | - |
| 1777755306 | 27.78° C | 23% | 1015.8 hPa | - | - | - | - |
| 1777751701 | 25.56° C | 27% | 1016.5 hPa | - | - | - | - |
| 1777751401 | 25.56° C | 26% | 1016.6 hPa | - | - | - | - |
| 1777750801 | 25.56° C | 27% | 1016.6 hPa | - | - | - | - |
| 1777749605 | 25° C | 30% | 1016.9 hPa | - | - | - | - |
| 1777748402 | 24.44° C | 31% | 1016.9 hPa | - | - | - | - |
| 1777747801 | 23.89° C | 33% | 1017 hPa | - | - | - | - |
| 1777746601 | 22.78° C | 34% | 1017.3 hPa | - | - | - | - |
| 1777743606 | 20.56° C | 41% | 1017.6 hPa | - | - | - | - |
* Rain since midnight (hover to see other rain measurements)
** Current wind speed in m/s (hover to see current wind gust speed)